Location: Forst
(46.9333°N, 15.4333°E)
Time: 21:13:50
(UTC+00:00)

Cosmos 2058 Rocket - Visible Passes

Search period start: 24 June 2021 00:00
Search period end: 04 July 2021 00:00
Orbit: 611 x 639 km, 82.5° (Epoch: 23 June)

Date Brightness Start Highest point End Pass type
(mag) Time Alt. Az. Time Alt. Az. Time Alt. Az.
24 Jun 3.4 20:59:32 10° N 21:03:54 54° ENE 21:06:09 26° SE visible
24 Jun 5.3 22:38:44 10° NW 22:41:25 16° W 22:43:26 12° WSW visible
25 Jun 5.3 19:42:45 10° NE 19:44:26 12° ENE 19:46:05 10° E visible
25 Jun 3.0 21:18:38 10° N 21:23:04 81° W 21:25:16 29° S visible
26 Jun 4.7 20:00:35 10° NNE 20:03:55 21° ENE 20:07:06 10° ESE visible
26 Jun 3.9 21:37:57 10° NNW 21:42:07 42° W 21:44:23 23° SSW visible
27 Jun 3.9 20:19:12 10° N 20:23:17 36° ENE 20:26:15 16° SE visible
27 Jun 4.9 21:57:35 10° NW 22:01:04 23° W 22:03:31 15° SW visible
28 Jun 3.1 20:38:07 10° N 20:42:32 67° E 20:45:23 21° SSE visible
28 Jun 5.5 22:17:55 10° NW 22:19:54 13° W 22:21:52 10° WSW visible
29 Jun 3.3 20:57:16 10° NNW 21:01:39 65° W 21:04:33 20° S visible
30 Jun 4.4 19:38:58 10° NNE 19:42:36 25° ENE 19:46:12 10° SE visible
30 Jun 4.4 21:16:41 10° NNW 21:20:40 34° W 21:23:44 15° SSW visible
01 Jul 3.6 19:57:42 10° N 20:01:55 44° ENE 20:05:40 12° SSE visible
01 Jul 5.3 21:36:29 10° NW 21:39:34 19° W 21:42:38 10° SW visible
02 Jul 3.0 20:16:42 10° N 20:21:08 83° E 20:24:53 14° S visible
02 Jul 5.8 21:57:48 10° WNW 21:58:22 10° W 21:58:56 10° W visible
03 Jul 3.7 20:35:57 10° NNW 20:40:13 52° W 20:44:07 12° SSW visible
